TimePDT,TemperatureF,Dew PointF,Humidity,Sea Level PressureIn,VisibilityMPH,Wind Direction,Wind SpeedMPH,Gust SpeedMPH,PrecipitationIn,Events,Conditions,WindDirDegrees,DateUTC
12:15 AM,64.4,41.0,42,30.37,10.0,SSE,3.5,-,N/A,,Clear,150,2013-06-29 07:15:00
12:35 AM,60.8,39.2,45,30.37,10.0,Calm,Calm,-,N/A,,Clear,0,2013-06-29 07:35:00
12:55 AM,57.2,39.2,51,30.36,10.0,Calm,Calm,-,N/A,,Clear,0,2013-06-29 07:55:00
1:15 AM,55.4,37.4,51,30.36,10.0,Calm,Calm,-,N/A,,Clear,0,2013-06-29 08:15:00
1:35 AM,53.6,37.4,54,30.36,10.0,WNW,3.5,-,N/A,,Clear,300,2013-06-29 08:35:00
1:55 AM,55.4,37.4,51,30.36,10.0,Calm,Calm,-,N/A,,Clear,0,2013-06-29 08:55:00
2:15 AM,51.8,35.6,54,30.36,10.0,NW,3.5,-,N/A,,Clear,320,2013-06-29 09:15:00
2:35 AM,48.2,33.8,58,30.36,10.0,Calm,Calm,-,N/A,,Clear,0,2013-06-29 09:35:00
2:55 AM,50.0,33.8,54,30.35,10.0,North,3.5,-,N/A,,Clear,10,2013-06-29 09:55:00
3:15 AM,53.6,35.6,51,30.35,10.0,North,4.6,-,N/A,,Clear,360,2013-06-29 10:15:00
3:35 AM,51.8,35.6,54,30.35,10.0,Calm,Calm,-,N/A,,Clear,0,2013-06-29 10:35:00
3:55 AM,53.6,35.6,51,30.34,10.0,Calm,Calm,-,N/A,,Clear,0,2013-06-29 10:55:00
4:15 AM,51.8,35.6,54,30.35,10.0,North,4.6,-,N/A,,Clear,350,2013-06-29 11:15:00
4:35 AM,53.6,35.6,51,30.34,10.0,Calm,Calm,-,N/A,,Clear,0,2013-06-29 11:35:00
4:55 AM,51.8,35.6,54,30.35,10.0,Calm,Calm,-,N/A,,Clear,0,2013-06-29 11:55:00
5:15 AM,50.0,35.6,58,30.35,10.0,Calm,Calm,-,N/A,,Clear,0,2013-06-29 12:15:00
5:35 AM,48.2,33.8,58,30.35,10.0,North,3.5,-,N/A,,Clear,350,2013-06-29 12:35:00
5:55 AM,46.4,33.8,62,30.35,10.0,NNW,3.5,-,N/A,,Clear,340,2013-06-29 12:55:00
6:15 AM,48.2,35.6,62,30.35,10.0,North,3.5,-,N/A,,Clear,360,2013-06-29 13:15:00
6:35 AM,53.6,35.6,51,30.35,10.0,Calm,Calm,-,N/A,,Clear,0,2013-06-29 13:35:00
6:55 AM,59.0,37.4,45,30.35,10.0,Calm,Calm,-,N/A,,Clear,0,2013-06-29 13:55:00
7:15 AM,62.6,37.4,39,30.36,10.0,Calm,Calm,-,N/A,,Clear,0,2013-06-29 14:15:00
7:35 AM,64.4,39.2,40,30.36,10.0,Calm,Calm,-,N/A,,Clear,0,2013-06-29 14:35:00
7:55 AM,64.4,42.8,45,30.36,10.0,SE,4.6,-,N/A,,Clear,140,2013-06-29 14:55:00
8:15 AM,68.0,39.2,35,30.36,10.0,SE,4.6,-,N/A,,Clear,130,2013-06-29 15:15:00
8:35 AM,69.8,39.2,33,30.35,10.0,SSE,4.6,-,N/A,,Clear,150,2013-06-29 15:35:00
8:55 AM,73.4,37.4,27,30.35,10.0,Calm,Calm,-,N/A,,Clear,0,2013-06-29 15:55:00
9:15 AM,77.0,39.2,26,30.35,10.0,WNW,3.5,-,N/A,,Clear,290,2013-06-29 16:15:00
9:35 AM,80.6,39.2,23,30.34,10.0,ESE,5.8,-,N/A,,Clear,120,2013-06-29 16:35:00
9:55 AM,82.4,37.4,20,30.34,10.0,SE,3.5,-,N/A,,Clear,130,2013-06-29 16:55:00
10:15 AM,82.4,33.8,17,30.33,10.0,East,3.5,-,N/A,,Clear,100,2013-06-29 17:15:00
10:35 AM,84.2,32.0,15,30.33,10.0,ESE,4.6,-,N/A,,Clear,120,2013-06-29 17:35:00
10:55 AM,86.0,32.0,14,30.34,10.0,SE,8.1,-,N/A,,Clear,130,2013-06-29 17:55:00
11:15 AM,86.0,30.2,13,30.33,10.0,East,5.8,-,N/A,,Clear,100,2013-06-29 18:15:00
11:35 AM,87.8,32.0,14,30.33,10.0,ESE,5.8,-,N/A,,Clear,120,2013-06-29 18:35:00
11:55 AM,87.8,32.0,14,30.32,10.0,South,3.5,-,N/A,,Clear,170,2013-06-29 18:55:00
12:15 PM,86.0,30.2,13,30.32,10.0,Calm,Calm,-,N/A,,Clear,0,2013-06-29 19:15:00
12:35 PM,91.4,30.2,11,30.31,10.0,ENE,3.5,16.1,N/A,,Scattered Clouds,60,2013-06-29 19:35:00
12:55 PM,87.8,30.2,13,30.31,10.0,South,9.2,-,N/A,,Scattered Clouds,170,2013-06-29 19:55:00
1:15 PM,91.4,30.2,11,30.30,10.0,NE,3.5,-,N/A,,Clear,50,2013-06-29 20:15:00
1:35 PM,87.8,28.4,12,30.30,10.0,West,4.6,-,N/A,,Scattered Clouds,280,2013-06-29 20:35:00
1:55 PM,87.8,26.6,11,30.30,10.0,South,6.9,19.6,N/A,,Clear,180,2013-06-29 20:55:00
2:15 PM,91.4,24.8,9,30.29,10.0,West,3.5,21.9,N/A,,Clear,260,2013-06-29 21:15:00
2:35 PM,93.2,24.8,9,30.28,10.0,SSW,12.7,21.9,N/A,,Clear,200,2013-06-29 21:35:00
2:55 PM,91.4,28.4,10,30.28,10.0,SSE,3.5,26.5,N/A,,Clear,150,2013-06-29 21:55:00
3:15 PM,91.4,30.2,11,30.27,10.0,SW,9.2,29.9,N/A,,Clear,230,2013-06-29 22:15:00
3:35 PM,89.6,35.6,15,30.28,10.0,West,23.0,31.1,N/A,,Clear,280,2013-06-29 22:35:00
3:55 PM,89.6,35.6,15,30.27,10.0,WNW,24.2,29.9,N/A,,Clear,290,2013-06-29 22:55:00
4:15 PM,89.6,33.8,14,30.26,10.0,West,15.0,31.1,N/A,,Clear,270,2013-06-29 23:15:00
4:35 PM,89.6,35.6,15,30.26,10.0,WNW,21.9,35.7,N/A,,Clear,290,2013-06-29 23:35:00
4:55 PM,87.8,37.4,17,30.25,10.0,West,25.3,34.5,N/A,,Clear,280,2013-06-29 23:55:00
5:15 PM,87.8,35.6,16,30.24,10.0,West,19.6,32.2,N/A,,Clear,270,2013-06-30 00:15:00
5:35 PM,87.8,37.4,17,30.24,10.0,West,19.6,29.9,N/A,,Clear,270,2013-06-30 00:35:00
5:55 PM,87.8,39.2,18,30.24,10.0,West,18.4,31.1,N/A,,Clear,260,2013-06-30 00:55:00
6:15 PM,86.0,37.4,18,30.24,10.0,WSW,18.4,29.9,N/A,,Clear,240,2013-06-30 01:15:00
6:35 PM,86.0,37.4,18,30.24,10.0,SW,15.0,29.9,N/A,,Clear,230,2013-06-30 01:35:00
6:55 PM,84.2,39.2,20,30.24,10.0,WSW,18.4,27.6,N/A,,Clear,240,2013-06-30 01:55:00
7:15 PM,84.2,39.2,20,30.25,10.0,SW,16.1,25.3,N/A,,Scattered Clouds,220,2013-06-30 02:15:00
7:35 PM,80.6,39.2,23,30.27,10.0,WNW,12.7,25.3,N/A,,Scattered Clouds,290,2013-06-30 02:35:00
7:55 PM,78.8,37.4,23,30.28,10.0,NW,19.6,27.6,N/A,,Scattered Clouds,320,2013-06-30 02:55:00
8:15 PM,78.8,33.8,20,30.29,10.0,WNW,13.8,25.3,N/A,,Scattered Clouds,300,2013-06-30 03:15:00
8:35 PM,77.0,35.6,22,30.29,10.0,West,13.8,18.4,N/A,,Scattered Clouds,280,2013-06-30 03:35:00
8:55 PM,73.4,35.6,25,30.30,10.0,WNW,11.5,20.7,N/A,,Clear,300,2013-06-30 03:55:00
9:15 PM,73.4,41.0,31,30.30,10.0,WNW,15.0,20.7,N/A,,Clear,290,2013-06-30 04:15:00
9:35 PM,73.4,41.0,31,30.31,10.0,West,9.2,-,N/A,,Clear,280,2013-06-30 04:35:00
9:55 PM,69.8,41.0,35,30.32,10.0,WNW,8.1,-,N/A,,Clear,300,2013-06-30 04:55:00
10:15 PM,68.0,39.2,35,30.32,10.0,WNW,9.2,-,N/A,,Clear,290,2013-06-30 05:15:00
10:35 PM,68.0,41.0,37,30.32,10.0,West,9.2,-,N/A,,Clear,280,2013-06-30 05:35:00
10:55 PM,66.2,41.0,40,30.32,10.0,West,9.2,-,N/A,,Clear,260,2013-06-30 05:55:00
11:15 PM,66.2,41.0,40,30.32,10.0,West,10.4,-,N/A,,Clear,270,2013-06-30 06:15:00
11:35 PM,66.2,39.2,37,30.32,10.0,West,9.2,-,N/A,,Clear,260,2013-06-30 06:35:00
11:55 PM,64.4,39.2,40,30.32,10.0,West,8.1,-,N/A,,Clear,260,2013-06-30 06:55:00